Location: Newark
(34.6283°N, 36.0776°E)
Time: 15:27:16
(UTC+00:00)

Tiros 1 despin weight - Pass Details

Date: 23 September 2019
Orbit: 594 x 643 km, 48.2° (Epoch: 14 October)

Event Time Altitude Azimuth Distance (km) Brightness Sun altitude
Rises 13:14:57 0° 313° (NW) 2,857 ? 26.8°
Reaches altitude 10° 13:17:41 10° 328° (NNW) 1,944 ? 26.3°
Maximum altitude 13:21:12 22° 20° (NNE) 1,310 ? 25.6°
Drops below altitude 10° 13:24:40 10° 73° (ENE) 1,926 ? 24.9°
Sets 13:27:22 0° 88° (E) 2,822 ? 24.4°
